CW7443 Weather Reports


Display with metric or nautical units.
time (UTC)temp
F
wind
direction
speed
MPH
gust
MPH
rain 1hr
in
rain 24hr
in
rain mn
in
humidity
%
barometer
mb
20260509171329 64 88 2.0 10.0 0.00 0.02 0.02 73 1008.6
20260509170833 63 204 1.0 10.0 0.00 0.02 0.02 75 1008.6
20260509170340 62 107 1.0 8.0 0.00 0.02 0.02 77 1008.6
20260509165820 62 169 1.0 8.0 0.00 0.02 0.02 78 1008.7
20260509165325 61 182 1.0 8.0 0.00 0.02 0.02 78 1008.7
20260509164832 61 267 1.0 5.0 0.00 0.02 0.02 79 1008.7
20260509164337 61 111 2.0 7.0 0.00 0.02 0.02 78 1008.7
20260509163826 61 148 2.0 7.0 0.00 0.02 0.02 79 1008.7
20260509163332 61 173 0.0 6.0 0.00 0.02 0.02 77 1008.7
20260509162835 61 261 2.0 5.0 0.00 0.02 0.02 75 1008.6
20260509162320 61 156 1.0 12.0 0.00 0.02 0.02 82 1008.6
20260509161825 60 118 2.0 12.0 0.00 0.02 0.02 80 1008.6
20260509161328 60 294 1.0 5.0 0.00 0.02 0.02 83 1008.6
20260509160834 60 173 2.0 5.0 0.00 0.02 0.02 82 1008.6
20260509160322 60 143 1.0 4.0 0.00 0.02 0.02 85 1008.6
20260509155850 59 225 0.0 4.0 0.00 0.02 0.02 87 1008.5
20260509155335 59 228 1.0 5.0 0.00 0.02 0.02 87 1008.5
20260509154821 59 82 1.0 7.0 0.00 0.02 0.02 86 1008.5
20260509154328 59 105 2.0 7.0 0.00 0.02 0.02 87 1008.3
20260509153854 58 168 0.0 7.0 0.00 0.02 0.02 89 1008.3
20260509153318 58 138 2.0 7.0 0.00 0.02 0.02 88 1008.3
20260509152822 58 107 1.0 5.0 0.00 0.02 0.02 90 1008.2
20260509152327 57 140 2.0 5.0 0.00 0.02 0.02 89 1008.2
20260509151853 57 22 0.0 7.0 0.00 0.02 0.02 91 1008.2
20260509151335 57 266 2.0 7.0 0.00 0.02 0.02 91 1008.1
20260509150821 57 171 2.0 7.0 0.00 0.02 0.02 92 1008.1
20260509150331 57 180 1.0 6.0 0.00 0.02 0.02 93 1008.1
20260509145834 57 158 1.0 4.0 0.00 0.02 0.02 94 1008.1
20260509145321 57 234 0.0 6.0 0.00 0.02 0.02 96 1008.1
20260509144830 56 82 1.0 6.0 0.00 0.02 0.02 96 1008.1
20260509144321 56 126 1.0 8.0 0.00 0.02 0.02 97 1008.1
20260509143826 56 178 2.0 8.0 0.00 0.02 0.02 98 1008.1
20260509143331 56 186 1.0 7.0 0.00 0.02 0.02 99 1008.1
20260509142833 55 250 0.0 6.0 0.00 0.02 0.02 100 1008.1
20260509142322 55 178 1.0 6.0 0.00 0.02 0.02 100 1008.1
20260509141828 55 200 2.0 6.0 0.00 0.02 0.02 100 1008.1
20260509141350 55 182 1.0 6.0 0.00 0.02 0.02 100 1008.1
20260509140855 55 189 1.0 6.0 0.00 0.02 0.02 100 1008.1
20260509140319 55 165 1.0 4.0 0.00 0.02 0.02 100 1008.1
20260509135820 54 193 0.0 4.0 0.00 0.02 0.02 100 1008.2
20260509135326 54 172 0.0 5.0 0.00 0.02 0.02 100 1008.2
20260509134851 54 213 1.0 5.0 0.00 0.02 0.02 100 1008.2
20260509134331 54 211 0.0 4.0 0.00 0.02 0.02 100 1008.2
20260509133823 54 160 1.0 4.0 0.00 0.02 0.02 100 1008.2
20260509133347 54 161 0.0 2.0 0.00 0.02 0.02 100 1008.2
20260509132852 54 161 0.0 2.0 0.00 0.02 0.02 100 1008.2
20260509132319 53 248 0.0 1.0 0.00 0.02 0.02 100 1008.2
20260509131826 53 254 0.0 0.0 0.00 0.02 0.02 100 1008.2
20260509131333 53 254 0.0 0.0 0.00 0.02 0.02 100 1007.9
20260509130815 53 254 0.0 0.0 0.00 0.02 0.02 100 1007.9
20260509130343 53 253 0.0 4.0 0.00 0.02 0.02 100 1007.9
20260509125849 53 254 0.0 4.0 0.00 0.02 0.02 100 1007.7
20260509125335 53 182 0.0 1.0 0.00 0.02 0.02 100 1007.7
20260509124821 53 182 0.0 2.0 0.00 0.02 0.02 100 1007.7
20260509124323 53 182 0.0 6.0 0.00 0.02 0.02 100 1008.0
20260509123828 53 241 0.0 6.0 0.00 0.02 0.02 100 1008.0
20260509123317 53 150 0.0 6.0 0.00 0.02 0.02 100 1008.0
20260509122821 53 132 0.0 4.0 0.00 0.02 0.02 100 1008.0
20260509122327 53 190 0.0 4.0 0.00 0.02 0.02 100 1008.0
20260509121832 53 182 0.0 6.0 0.00 0.02 0.02 100 1008.0
20260509121319 53 248 0.0 6.0 0.00 0.02 0.02 100 1008.2
20260509120824 53 240 1.0 6.0 0.00 0.02 0.02 100 1008.2
20260509120333 53 111 0.0 0.0 0.00 0.02 0.02 100 1008.2
20260509115836 53 111 0.0 1.0 0.00 0.02 0.02 100 1008.1
20260509115320 53 107 0.0 4.0 0.00 0.02 0.02 100 1008.1
20260509114826 53 138 0.0 4.0 0.00 0.02 0.02 100 1008.1
20260509114329 53 146 1.0 3.0 0.00 0.02 0.02 100 1008.4
20260509113837 53 89 0.0 3.0 0.00 0.02 0.02 100 1008.4
20260509113344 53 89 0.0 5.0 0.00 0.02 0.02 100 1008.4
20260509112825 53 154 0.0 6.0 0.00 0.02 0.02 100 1008.3
20260509112336 53 188 1.0 6.0 0.00 0.02 0.02 100 1008.3
20260509111821 53 208 0.0 4.0 0.00 0.02 0.02 100 1008.3
20260509111327 53 164 0.0 4.0 0.00 0.02 0.02 100 1008.5
20260509110831 53 163 1.0 4.0 0.00 0.02 0.02 100 1008.5
20260509110339 53 142 0.0 6.0 0.00 0.02 0.02 100 1008.5
20260509105826 53 23 1.0 6.0 0.00 0.02 0.02 100 1008.4
20260509105334 53 175 1.0 5.0 0.00 0.02 0.02 100 1008.4
20260509104818 52 105 0.0 5.0 0.00 0.02 0.02 100 1008.4
20260509104324 52 104 0.0 6.0 0.00 0.02 0.02 100 1008.1
20260509103828 52 163 2.0 6.0 0.00 0.02 0.02 100 1008.1
20260509103353 52 184 1.0 5.0 0.00 0.02 0.02 100 1008.1
20260509102834 52 220 0.0 4.0 0.00 0.02 0.02 100 1008.1
20260509102318 52 141 0.0 4.0 0.00 0.02 0.02 100 1008.1
20260509101823 52 159 1.0 4.0 0.00 0.02 0.02 100 1008.1
20260509101328 52 243 1.0 4.0 0.00 0.02 0.02 100 1008.1
20260509100834 52 142 0.0 1.0 0.00 0.02 0.02 100 1008.1
20260509100318 52 228 0.0 0.0 0.00 0.02 0.02 100 1008.1
20260509095820 52 247 0.0 0.0 0.00 0.02 0.02 100 1008.1
20260509095325 52 247 0.0 0.0 0.00 0.02 0.02 100 1008.1
20260509094831 52 247 0.0 0.0 0.00 0.02 0.02 100 1008.1
20260509094321 52 247 0.0 1.0 0.00 0.02 0.02 100 1008.2
20260509093826 52 247 0.0 1.0 0.00 0.02 0.02 100 1008.2
20260509093332 52 248 0.0 1.0 0.00 0.02 0.02 100 1008.2
20260509092854 52 186 0.0 0.0 0.00 0.02 0.02 100 1008.4
20260509092318 52 186 0.0 2.0 0.00 0.02 0.02 100 1008.4
20260509091824 52 186 0.0 2.0 0.00 0.02 0.02 100 1008.4
20260509091351 52 186 0.0 1.0 0.00 0.02 0.02 100 1008.5
20260509090835 52 188 0.0 0.0 0.00 0.02 0.02 100 1008.5
20260509090320 52 188 0.0 0.0 0.00 0.02 0.02 100 1008.5
20260509085842 52 188 0.0 0.0 0.00 0.02 0.02 100 1008.6
20260509085325 52 188 0.0 0.0 0.00 0.02 0.02 100 1008.6
20260509084831 52 188 0.0 1.0 0.00 0.02 0.02 100 1008.6
20260509084318 52 188 0.0 1.0 0.00 0.02 0.02 100 1008.8
20260509083827 52 188 0.0 1.0 0.00 0.02 0.02 100 1008.8
20260509083312 52 178 0.0 2.0 0.00 0.02 0.02 100 1008.8
20260509082821 52 177 0.0 2.0 0.00 0.02 0.02 100 1008.8
20260509082327 52 175 0.0 1.0 0.00 0.02 0.02 100 1008.8
20260509081830 52 175 0.0 2.0 0.00 0.02 0.02 100 1008.8
20260509081337 52 178 0.0 2.0 0.00 0.02 0.02 100 1008.9
20260509080842 52 178 0.0 0.0 0.00 0.02 0.02 100 1008.9
20260509080353 52 178 0.0 0.0 0.00 0.02 0.02 100 1008.9
20260509075834 52 178 0.0 0.0 0.00 0.02 0.02 100 1009.0
20260509075317 52 178 0.0 0.0 0.00 0.02 0.02 100 1009.0
20260509074824 52 178 0.0 0.0 0.00 0.02 0.02 100 1009.0
20260509074333 52 178 0.0 0.0 0.00 0.02 0.02 100 1009.1
20260509073816 52 178 0.0 0.0 0.00 0.02 0.02 100 1009.1
20260509073324 52 178 0.0 0.0 0.00 0.02 0.02 100 1009.1
20260509072830 52 178 0.0 0.0 0.00 0.02 0.02 100 1009.0
20260509072356 52 178 0.0 0.0 0.00 0.02 0.02 100 1009.0
20260509071821 52 178 0.0 0.0 0.00 0.02 0.02 100 1009.0
20260509071344 52 178 0.0 0.0 0.01 0.02 0.02 100 1009.2
20260509070828 52 178 0.0 0.0 0.01 0.02 0.02 100 1009.2
20260509070333 52 178 0.0 0.0 0.01 0.02 0.02 100 1009.2
20260509065835 52 178 0.0 0.0 0.01 0.02 0.02 100 1009.2
20260509065322 52 178 0.0 0.0 0.01 0.02 0.02 100 1009.2
20260509064812 52 178 0.0 0.0 0.01 0.02 0.02 100 1009.2
20260509064321 52 178 0.0 0.0 0.01 0.02 0.02 100 1009.2
20260509063825 52 178 0.0 0.0 0.01 0.02 0.02 100 1009.2
20260509063330 52 178 0.0 0.0 0.01 0.02 0.02 100 1009.2
20260509062836 52 178 0.0 0.0 0.01 0.02 0.02 100 1009.4
20260509062321 52 178 0.0 0.0 0.02 0.02 0.02 100 1009.4
20260509061828 52 178 0.0 0.0 0.02 0.02 0.02 100 1009.4
20260509061351 52 178 0.0 0.0 0.01 0.01 0.01 100 1009.6
20260509060835 52 178 0.0 0.0 0.01 0.01 0.01 100 1009.6
20260509060319 52 178 0.0 0.0 0.01 0.01 0.01 100 1009.6
20260509055820 52 178 0.0 0.0 0.01 0.01 0.01 100 1009.7
20260509055326 52 178 0.0 0.0 0.01 0.01 0.01 100 1009.7
20260509054836 52 178 0.0 0.0 0.01 0.01 0.01 100 1009.7
20260509054322 52 178 0.0 0.0 0.01 0.01 0.01 100 1009.7
20260509053828 52 178 0.0 0.0 0.01 0.01 0.01 100 1009.7
20260509053316 52 178 0.0 0.0 0.01 0.01 0.01 100 1009.7
20260509052819 52 178 0.0 0.0 0.01 0.01 0.01 99 1009.8
20260509052344 52 178 0.0 0.0 0.00 0.00 0.00 99 1009.8
20260509051829 52 178 0.0 0.0 0.00 0.00 0.00 99 1009.8
20260509051331 52 178 0.0 0.0 0.00 0.00 0.00 99 1009.9
20260509050821 52 178 0.0 0.0 0.00 0.00 0.00 99 1009.9
20260509050349 52 178 0.0 0.0 0.00 0.00 0.00 99 1009.9
20260509045833 52 178 0.0 0.0 0.00 0.00 0.00 99 1009.7
20260509045318 52 178 0.0 0.0 0.00 0.00 0.00 99 1009.7
20260509044831 52 178 0.0 0.0 0.00 0.00 0.00 99 1009.7
20260509044332 52 178 0.0 0.0 0.00 0.00 0.00 99 1009.7
20260509043816 52 178 0.0 0.0 0.00 0.00 0.00 99 1009.7
20260509043323 52 178 0.0 0.0 0.00 0.00 0.00 99 1009.7
20260509042829 52 178 0.0 0.0 0.00 0.00 0.00 99 1010.1
20260509042335 52 178 0.0 0.0 0.00 0.00 0.00 99 1010.1
20260509041839 52 178 0.0 0.0 0.00 0.00 0.00 99 1010.1
20260509041318 52 178 0.0 0.0 0.00 0.00 0.00 99 1010.2
20260509040823 53 178 0.0 0.0 0.00 0.00 0.00 98 1010.2
20260509040328 53 178 0.0 0.0 0.00 0.00 0.00 98 1010.2
20260509035830 53 178 0.0 0.0 0.00 0.00 0.00 98 1010.1
20260509035323 53 178 0.0 0.0 0.00 0.00 0.00 98 1010.1
20260509034828 53 178 0.0 0.0 0.00 0.00 0.00 98 1010.1
20260509034351 53 178 0.0 0.0 0.00 0.00 0.00 98 1010.2
20260509033822 53 178 0.0 0.0 0.00 0.00 0.00 98 1010.2
20260509033328 53 178 0.0 0.0 0.00 0.00 0.00 98 1010.2
20260509032832 53 178 0.0 0.0 0.00 0.00 0.00 98 1010.2
20260509032337 53 178 0.0 0.0 0.00 0.00 0.00 98 1010.2
20260509031823 53 178 0.0 0.0 0.00 0.00 0.00 97 1010.2
20260509031326 53 178 0.0 0.0 0.00 0.00 0.00 97 1010.3
20260509030832 53 178 0.0 0.0 0.00 0.00 0.00 97 1010.3
20260509030315 53 178 0.0 0.0 0.00 0.00 0.00 97 1010.3
20260509025827 53 178 0.0 0.0 0.00 0.00 0.00 97 1010.3
20260509025315 53 178 0.0 0.0 0.00 0.00 0.00 97 1010.3
20260509024823 53 178 0.0 0.0 0.00 0.00 0.00 97 1010.3
20260509024347 53 178 0.0 0.0 0.00 0.00 0.00 96 1010.3
20260509023854 53 178 0.0 0.0 0.00 0.00 0.00 96 1010.3
20260509023315 53 178 0.0 0.0 0.00 0.00 0.00 94 1010.3
20260509022323 53 178 0.0 0.0 0.00 0.00 0.00 95 1010.3
20260509021828 53 178 0.0 0.0 0.00 0.00 0.00 95 1010.3
20260509021352 53 178 0.0 0.0 0.00 0.00 0.00 95 1010.6
20260509020823 53 178 0.0 0.0 0.00 0.00 0.00 95 1010.6
20260509020353 53 178 0.0 0.0 0.00 0.00 0.00 95 1010.6
20260509015836 53 178 0.0 0.0 0.00 0.00 0.00 95 1010.4
20260509015322 54 178 0.0 0.0 0.00 0.00 0.00 94 1010.4
20260509014830 54 178 0.0 0.0 0.00 0.00 0.00 94 1010.4
20260509014334 54 178 0.0 0.0 0.00 0.00 0.00 92 1010.5
20260509013839 54 178 0.0 0.0 0.00 0.00 0.00 92 1010.5
20260509013324 54 178 0.0 0.0 0.00 0.00 0.00 92 1010.5
20260509011813 55 178 0.0 0.0 0.00 0.00 0.00 92 1010.4
20260509011321 55 178 0.0 0.0 0.00 0.00 0.00 91 1010.2
20260509010831 55 178 0.0 0.0 0.00 0.00 0.00 90 1010.2
20260509010337 56 178 0.0 0.0 0.00 0.00 0.00 87 1010.2
20260509005822 56 178 0.0 0.0 0.00 0.00 0.00 86 1010.2
20260509005330 56 178 0.0 0.0 0.00 0.00 0.00 84 1010.2
20260509004835 56 178 0.0 0.0 0.00 0.00 0.00 81 1010.2
20260509004338 57 178 0.0 8.0 0.00 0.00 0.00 77 1010.1
20260509003820 57 178 2.0 8.0 0.00 0.00 0.00 80 1010.1
20260509003324 57 139 0.0 0.0 0.00 0.00 0.00 79 1010.1
20260509002333 58 139 0.0 0.0 0.00 0.00 0.00 76 1010.0
20260509001819 59 139 0.0 0.0 0.00 0.00 0.00 72 1010.0
20260509001347 59 139 0.0 0.0 0.00 0.00 0.00 70 1009.8
20260509000833 60 139 0.0 0.0 0.00 0.00 0.00 70 1009.8
20260509000318 60 139 0.0 0.0 0.00 0.00 0.00 64 1009.8
20260508235818 61 139 0.0 0.0 0.00 0.00 0.00 62 1009.7
20260508235350 61 139 0.0 0.0 0.00 0.00 0.00 60 1009.7
20260508234854 61 139 0.0 0.0 0.00 0.00 0.00 55 1009.7
20260508234337 62 139 0.0 3.0 0.00 0.00 0.00 54 1009.8
20260508233821 62 139 0.0 8.0 0.00 0.00 0.00 54 1009.8
20260508233330 62 137 0.0 8.0 0.00 0.00 0.00 52 1009.8
20260508232818 62 129 1.0 8.0 0.00 0.00 0.00 53 1009.9
20260508232326 62 101 1.0 8.0 0.00 0.00 0.00 52 1009.9
20260508231812 62 136 0.0 3.0 0.00 0.00 0.00 55 1009.9
20260508231337 62 76 0.0 3.0 0.00 0.00 0.00 55 1009.7
20260508230823 62 78 0.0 3.0 0.00 0.00 0.00 53 1009.7
20260508230329 63 86 0.0 3.0 0.00 0.00 0.00 55 1009.7
20260508225835 63 86 0.0 3.0 0.00 0.00 0.00 51 1009.6
20260508225340 63 88 0.0 3.0 0.00 0.00 0.00 53 1009.6
20260508224827 63 93 0.0 2.0 0.00 0.00 0.00 54 1009.6
20260508224330 64 128 0.0 0.0 0.00 0.00 0.00 51 1009.5
20260508223819 64 128 0.0 4.0 0.00 0.00 0.00 50 1009.5
20260508223329 64 128 0.0 4.0 0.00 0.00 0.00 52 1009.5
20260508222833 64 141 1.0 4.0 0.00 0.00 0.00 49 1009.5
20260508222336 64 138 0.0 3.0 0.00 0.00 0.00 51 1009.5
20260508221825 64 138 1.0 3.0 0.00 0.00 0.00 49 1009.5
20260508221329 64 138 0.0 4.0 0.00 0.00 0.00 50 1009.4
20260508220833 64 138 0.0 4.0 0.00 0.00 0.00 48 1009.4
20260508220321 64 142 0.0 3.0 0.00 0.00 0.00 49 1009.4
20260508215824 64 143 0.0 0.0 0.00 0.00 0.00 49 1009.4
20260508215335 65 143 0.0 5.0 0.00 0.00 0.00 48 1009.4
20260508214820 65 143 0.0 5.0 0.00 0.00 0.00 49 1009.4
20260508214325 65 128 1.0 5.0 0.00 0.00 0.00 48 1009.4
20260508213837 65 153 1.0 5.0 0.00 0.00 0.00 46 1009.4
20260508213342 65 146 1.0 5.0 0.00 0.00 0.00 45 1009.4
20260508212846 65 178 2.0 5.0 0.00 0.00 0.00 48 1009.6
20260508212323 65 236 0.0 3.0 0.00 0.00 0.00 50 1009.6
20260508211829 65 146 1.0 6.0 0.00 0.00 0.00 48 1009.6
20260508211335 65 146 1.0 6.0 0.00 0.00 0.00 47 1009.7
20260508210822 65 126 1.0 6.0 0.00 0.00 0.00 47 1009.7
20260508210350 65 122 2.0 7.0 0.00 0.00 0.00 46 1009.7
20260508205853 64 151 2.0 9.0 0.00 0.00 0.00 46 1009.8
20260508205315 64 108 3.0 9.0 0.00 0.00 0.00 45 1009.8
20260508204826 64 144 0.0 9.0 0.00 0.00 0.00 46 1009.8
20260508204349 64 166 3.0 9.0 0.00 0.00 0.00 45 1009.9
20260508203837 64 110 3.0 9.0 0.00 0.00 0.00 45 1009.9
20260508203341 64 123 2.0 8.0 0.00 0.00 0.00 48 1009.9
20260508202823 64 117 3.0 10.0 0.00 0.00 0.00 46 1010.2
20260508202329 64 296 1.0 11.0 0.00 0.00 0.00 47 1010.2
20260508201838 64 132 1.0 11.0 0.00 0.00 0.00 49 1010.2
20260508201321 64 125 1.0 11.0 0.00 0.00 0.00 48 1010.3
20260508200826 63 100 4.0 11.0 0.00 0.00 0.00 47 1010.3
20260508200316 63 178 1.0 7.0 0.00 0.00 0.00 50 1010.3
20260508195818 63 121 2.0 7.0 0.00 0.00 0.00 50 1010.5
20260508195344 63 105 1.0 5.0 0.00 0.00 0.00 52 1010.5
20260508194828 63 85 1.0 7.0 0.00 0.00 0.00 50 1010.5
20260508194331 63 159 0.0 7.0 0.00 0.00 0.00 51 1010.6
20260508193837 64 182 2.0 6.0 0.00 0.00 0.00 48 1010.6
20260508193322 64 125 1.0 6.0 0.00 0.00 0.00 49 1010.6
20260508192828 65 174 1.0 6.0 0.00 0.00 0.00 49 1010.7
20260508192320 65 125 1.0 6.0 0.00 0.00 0.00 47 1010.7
20260508191846 65 281 1.0 4.0 0.00 0.00 0.00 50 1010.7
20260508191352 65 75 1.0 13.0 0.00 0.00 0.00 49 1010.8
20260508190822 65 145 3.0 13.0 0.00 0.00 0.00 49 1010.8
20260508190327 64 194 1.0 7.0 0.00 0.00 0.00 48 1010.8
20260508185829 65 167 2.0 8.0 0.00 0.00 0.00 50 1011.2
20260508185354 65 224 1.0 5.0 0.00 0.00 0.00 50 1011.2
20260508184821 64 186 2.0 6.0 0.00 0.00 0.00 50 1011.2
20260508184326 64 103 2.0 7.0 0.00 0.00 0.00 52 1011.5
20260508183831 64 167 3.0 7.0 0.00 0.00 0.00 50 1011.5
20260508183320 64 175 1.0 10.0 0.00 0.00 0.00 50 1011.5
20260508182842 64 198 1.0 10.0 0.00 0.00 0.00 50 1011.9
20260508182330 65 119 2.0 7.0 0.00 0.00 0.00 51 1011.9
20260508181823 65 194 1.0 8.0 0.00 0.00 0.00 51 1011.9
20260508181345 64 175 2.0 8.0 0.00 0.00 0.00 50 1012.2
20260508180829 64 250 2.0 9.0 0.00 0.00 0.00 54 1012.2
20260508180315 63 67 1.0 9.0 0.00 0.00 0.00 54 1012.2
20260508175821 62 172 1.0 5.0 0.00 0.00 0.00 54 1012.4
20260508175351 62 128 0.0 6.0 0.00 0.00 0.00 56 1012.4
20260508174829 61 143 2.0 6.0 0.00 0.00 0.00 55 1012.4
20260508174332 61 151 0.0 6.0 0.00 0.00 0.00 58 1012.8
20260508173857 61 151 2.0 6.0 0.00 0.00 0.00 56 1012.8
20260508173319 61 153 0.0 5.0 0.00 0.00 0.00 58 1012.8
20260508172818 60 151 1.0 6.0 0.00 0.00 0.00 55 1012.9
20260508172346 60 91 2.0 7.0 0.00 0.00 0.00 55 1012.9
20260508171831 60 139 2.0 7.0 0.00 0.00 0.00 55 1012.9